Wind_Speed
6 6 6 10 15 15 16 21 24 23 22 22 20 20 22 22 20 18 18 20 19 17 18 21 21 20 19 17 17 17 18 20 19 19 19 16 17 17 16 15 14 15 15 14 13 13 12 11 10 9 8 8 8 8 9 9 9 10 10 11 11 12 13 13 13 13 12 12 13 13 14 14 14 14 14 14 14 13 13 13 12 11 11 11 11 10
9 8 8 11 14 12 13 21 26 24 23 22 21 19 20 22 21 20 20 19 21 19 15 18 22 21 20 19 18 16 15 20 22 22 21 18 18 18 17 16 16 15 15 14 14 14 13 12 11 11 10 9 8 8 9 10 10 10 10 10 11 11 12 13 13 13 12 12 12 12 12 13 14 13 13 13 13 13 13 12 12 12 11 11 10 9
10 10 12 12 12 11 14 19 24 24 23 23 22 20 18 21 21 20 21 21 21 21 16 15 19 21 21 21 21 17 15 23 26 24 22 20 20 20 18 18 17 16 15 16 16 16 14 13 13 12 11 10 9 9 9 10 11 10 11 10 11 11 12 12 12 12 13 12 11 11 11 11 12 12 12 12 13 13 13 12 12 11 11 10 10 9
9 11 15 14 12 13 15 17 21 25 25 24 24 22 18 19 23 22 22 23 21 21 20 16 15 19 22 23 23 20 16 22 27 24 23 22 21 21 20 19 18 17 17 16 16 16 15 14 14 13 12 11 11 10 10 11 11 11 11 11 10 11 11 11 11 11 12 12 11 10 10 10 11 11 11 12 12 12 12 11 11 11 10 10 9 8
13 14 13 12 15 15 14 15 19 23 25 25 26 26 23 21 26 29 23 18 18 19 22 20 17 18 21 23 25 22 18 20 26 27 28 26 24 22 21 20 19 19 18 17 16 17 16 14 14 14 13 13 12 11 11 11 11 11 11 11 10 10 10 10 10 10 10 10 10 10 9 10 10 10 11 11 11 11 11 10 10 10 10 9 9 8
16 17 11 12 16 15 14 15 17 20 23 24 22 23 27 24 27 32 25 17 16 16 18 20 19 19 21 22 24 24 20 19 25 31 31 29 26 24 22 21 21 20 19 18 18 17 16 15 15 15 14 14 13 12 12 12 11 11 11 10 10 10 10 10 9 9 9 8 9 9 9 9 10 10 10 10 9 9 9 9 9 9 9 9 9 8
19 18 12 14 16 14 15 15 16 18 20 21 18 16 20 22 26 30 27 22 21 19 18 19 19 18 20 21 23 24 24 21 23 31 34 31 29 26 23 22 22 21 19 19 19 18 17 17 16 16 15 14 14 13 12 12 12 11 11 10 10 9 10 10 10 9 9 9 9 10 10 10 10 10 10 9 9 8 8 9 8 8 8 8 8 8
19 16 12 14 16 15 16 16 17 18 17 18 19 19 19 21 24 26 25 25 26 23 20 18 18 17 18 20 20 23 25 23 22 29 36 34 32 28 24 23 22 22 21 19 19 18 18 17 17 17 16 15 14 14 13 13 13 12 11 11 10 10 10 10 11 11 11 11 11 11 11 11 10 10 10 10 9 8 8 8 8 8 7 7 7 8
14 12 13 14 14 14 16 17 20 21 18 16 20 23 23 22 22 22 23 25 28 26 21 20 19 17 18 20 20 20 22 24 22 27 37 36 33 30 26 24 24 23 22 20 19 19 18 18 19 18 16 15 15 15 15 14 14 13 12 11 11 10 10 11 12 12 12 12 12 12 11 11 10 10 10 10 10 9 8 8 8 8 8 8 7 7
9 9 11 12 13 15 18 20 21 20 17 17 23 25 23 23 21 21 23 24 26 25 21 22 20 18 21 21 20 19 20 22 21 24 36 36 33 31 27 25 25 24 23 22 20 20 19 19 20 19 17 16 16 16 16 15 14 14 13 12 12 11 11 11 12 13 12 12 12 11 11 10 10 10 10 10 10 10 9 9 8 8 8 8 7 7
12 11 11 10 13 17 19 19 20 19 18 21 24 23 22 24 22 21 22 22 23 23 22 23 21 20 22 21 20 20 20 22 23 24 32 37 35 32 29 28 27 26 25 23 22 20 20 20 20 20 18 17 17 16 16 15 15 15 14 13 13 12 11 11 12 13 13 13 12 12 11 10 10 10 10 10 10 10 9 9 8 8 7 7 7 7
13 11 11 12 14 17 18 17 18 18 19 22 22 20 20 21 21 21 22 21 20 21 23 25 23 22 21 20 21 22 21 22 25 25 28 35 38 33 31 30 27 27 26 24 24 22 21 21 21 21 20 19 18 17 16 16 16 15 15 15 14 13 13 12 12 12 13 13 13 13 12 12 11 11 10 10 10 10 9 9 8 8 7 7 7 7
12 11 12 14 16 16 16 15 17 18 19 21 20 20 19 18 20 23 24 23 20 20 24 24 22 22 21 21 23 22 21 21 24 25 25 31 38 35 32 32 28 28 28 26 25 24 22 21 21 22 21 20 19 17 17 16 16 16 16 16 16 15 14 13 12 12 12 12 13 13 13 13 12 12 11 11 10 10 10 9 9 8 7 7 6 6
12 17 15 15 16 18 17 13 12 14 17 19 18 19 19 19 20 21 22 22 19 20 24 24 22 21 21 23 23 22 22 23 24 25 23 26 35 37 34 32 30 30 30 28 26 25 23 22 21 22 22 21 20 19 18 18 17 16 17 17 17 16 15 15 14 13 12 12 12 12 12 13 12 12 11 11 10 10 10 9 9 8 8 7 6 6
12 16 16 11 11 14 14 15 15 13 13 15 15 17 19 19 18 16 16 18 18 20 23 24 21 19 20 23 24 23 23 24 24 24 23 24 30 37 36 33 33 33 31 30 29 26 24 23 22 23 23 23 22 21 19 19 17 17 17 17 17 17 16 15 15 14 13 12 11 12 12 11 12 11 10 10 9 9 9 9 8 8 8 7 7 7
9 10 15 11 10 13 12 15 18 15 13 12 13 15 18 17 16 14 14 17 20 22 22 21 19 17 18 21 23 23 22 23 24 23 24 24 27 34 38 36 34 34 33 32 31 28 26 24 23 23 24 24 23 22 21 19 19 18 18 18 18 18 17 16 16 15 14 13 12 12 11 11 11 10 10 9 9 9 8 8 8 8 7 7 7 7
5 9 17 13 12 16 15 15 16 15 16 15 13 14 17 17 17 16 16 18 21 23 21 18 17 18 18 18 20 22 21 22 24 23 24 26 27 29 33 38 37 33 34 34 32 30 28 26 25 25 25 25 24 23 22 21 20 20 19 18 18 18 17 17 16 15 15 14 14 12 12 12 11 10 10 9 9 9 9 8 8 7 7 7 7 7
8 11 13 14 10 12 13 15 16 15 16 17 16 15 17 19 21 21 21 21 21 22 20 17 17 19 18 16 17 18 19 21 23 22 23 26 30 28 26 35 41 37 34 36 34 32 31 29 27 27 26 26 25 24 24 23 22 21 21 19 19 18 18 17 16 15 15 14 14 13 13 12 12 11 11 10 10 10 10 9 8 8 8 8 8 8
9 8 8 12 10 10 12 12 15 16 16 19 19 17 17 19 20 21 22 21 21 20 19 17 15 17 20 18 15 14 15 17 20 23 23 25 31 32 27 29 40 42 37 36 36 34 33 32 29 29 29 28 27 26 25 24 23 22 22 20 20 20 19 18 17 16 15 15 14 14 14 13 12 12 11 11 11 11 11 10 9 9 9 9 9 9
8 7 9 10 8 10 12 11 12 13 14 19 21 19 20 21 18 19 20 19 21 21 18 15 14 16 19 19 18 16 14 13 13 20 27 27 28 33 34 29 34 42 40 37 38 36 34 33 31 31 31 30 29 28 27 26 24 23 22 21 21 20 19 18 18 17 16 16 15 14 14 13 13 13 13 12 12 12 12 11 10 10 10 10 10 10
10 8 10 10 8 9 11 11 12 11 10 13 18 19 20 20 19 20 18 16 20 23 20 15 14 16 18 19 19 18 16 15 12 12 21 29 29 29 34 33 31 37 42 40 38 38 36 34 33 33 33 32 31 31 29 27 26 25 23 23 22 21 19 18 18 17 17 17 16 16 16 15 15 15 14 14 14 14 13 12 12 11 11 11 11 11
9 8 8 9 9 10 12 11 12 13 12 11 14 18 19 19 20 22 20 16 17 22 22 18 18 18 17 16 18 17 16 20 21 13 9 20 30 28 29 33 31 33 43 44 40 40 38 35 35 35 35 34 33 32 30 28 28 27 25 24 23 22 21 19 18 17 17 17 17 17 18 17 17 16 16 16 16 15 15 14 14 13 13 12 12 11
10 11 11 10 10 11 13 12 12 15 15 13 15 18 19 19 19 18 18 18 19 22 23 21 21 21 18 14 15 17 17 18 23 21 10 11 23 26 24 28 30 30 40 47 43 41 41 38 37 37 36 36 35 32 32 31 29 28 27 26 25 23 22 21 20 18 18 18 18 18 18 18 18 18 17 17 17 17 17 16 16 15 15 14 13 12
11 13 15 13 11 11 12 13 15 17 16 15 17 18 18 19 19 16 14 16 21 24 24 24 22 22 20 17 16 18 20 18 20 22 19 15 19 22 20 23 27 26 33 46 46 41 42 41 39 40 39 37 36 33 32 32 31 29 29 28 26 25 24 23 22 21 20 20 19 19 19 19 19 19 18 18 18 18 18 18 17 17 16 16 15 14
8 11 13 12 12 11 12 13 15 17 16 15 17 17 16 16 18 18 14 13 18 22 24 25 25 22 20 20 19 19 21 21 20 20 20 19 20 21 20 20 25 24 27 43 50 43 41 44 43 41 40 38 37 35 33 32 32 30 30 29 28 27 26 25 24 23 22 22 21 20 20 20 20 20 19 19 19 19 19 19 18 18 18 18 17 16
11 13 13 12 12 11 12 14 15 14 15 16 16 17 17 14 13 15 15 14 17 21 23 25 25 21 17 18 19 19 20 21 21 19 18 18 19 21 21 20 24 24 23 35 50 47 42 44 45 42 42 41 39 38 37 35 33 32 31 30 30 29 27 26 25 25 24 24 23 23 22 22 22 22 21 21 21 21 20 20 19 19 19 19 19 18
15 15 15 16 16 15 16 18 18 16 16 17 16 18 20 18 17 17 17 18 18 20 23 24 24 21 16 17 18 19 20 20 20 20 18 17 17 18 20 20 23 25 22 25 40 49 46 44 46 46 44 44 42 40 39 38 35 34 34 33 32 31 29 28 27 26 26 26 26 25 25 25 24 24 24 23 23 23 22 22 22 21 20 20 20 20
15 15 15 16 16 17 20 22 22 21 20 20 19 18 19 19 21 20 20 20 19 21 23 21 21 22 19 19 19 18 19 19 17 17 18 18 19 18 19 20 21 24 24 22 29 45 52 48 47 48 46 45 45 42 40 40 38 36 36 35 33 32 31 30 29 29 28 28 27 27 27 27 26 25 25 25 25 25 24 24 24 23 22 21 22 22
16 16 16 15 15 17 19 21 23 23 22 22 21 20 19 19 21 22 22 20 17 20 24 21 20 21 20 19 20 19 20 17 12 12 14 16 19 19 19 21 20 22 26 25 25 36 48 49 47 46 46 45 45 45 44 43 41 39 37 35 33 32 32 31 31 30 30 29 29 29 28 28 27 26 26 26 25 25 24 24 24 24 24 23 24 24
17 18 18 17 17 17 18 19 21 22 22 22 21 21 21 21 22 23 23 22 18 18 23 22 21 22 20 20 18 16 17 13 9 11 15 16 17 18 20 23 22 20 22 26 27 31 40 49 50 47 46 46 46 46 45 44 42 39 38 35 34 33 32 32 32 31 30 30 30 29 28 28 27 27 27 26 24 23 23 24 25 25 24 24 25 25
17 18 19 18 17 17 18 20 21 20 21 21 20 20 21 21 23 24 24 25 24 22 21 22 23 21 20 21 21 18 15 11 10 12 14 15 16 17 19 22 23 20 17 21 29 34 40 49 51 49 48 47 46 45 45 44 41 39 37 35 34 34 34 33 33 32 32 32 31 29 29 29 29 28 27 26 24 24 24 25 26 26 26 25 26 26
18 19 19 18 18 16 13 14 15 16 18 19 20 21 20 20 23 25 27 28 28 26 23 23 25 24 19 18 21 22 19 15 14 12 11 14 16 17 17 19 22 20 15 18 30 39 41 46 48 49 50 48 46 46 45 43 40 38 37 36 35 35 36 35 34 34 33 33 32 30 30 30 29 28 28 27 26 26 26 27 28 29 28 27 26 27
19 20 19 20 20 16 11 13 16 16 17 19 20 20 21 22 23 25 28 29 28 27 24 23 26 27 23 20 20 21 21 19 16 13 12 14 16 17 16 16 19 19 13 17 32 43 44 45 47 49 51 49 47 47 46 43 41 39 37 36 36 36 35 35 35 35 35 34 32 30 30 29 28 28 28 27 27 27 28 29 30 30 30 29 29 29
18 19 21 22 22 15 12 16 19 18 19 20 21 20 21 24 24 24 26 28 29 28 24 23 24 24 24 23 21 20 20 20 17 15 15 15 15 18 18 16 18 19 13 14 28 43 47 47 49 51 50 48 47 46 45 43 41 39 38 37 36 36 35 35 35 35 35 34 32 29 29 29 28 27 26 27 27 27 28 28 28 29 30 29 30 29
18 18 21 24 23 17 16 18 18 18 20 20 20 21 22 24 24 25 25 26 29 29 26 26 25 23 23 23 21 20 20 20 19 18 17 16 16 18 19 19 19 19 15 14 20 36 47 47 48 50 47 44 45 45 44 43 40 39 39 38 37 37 36 35 36 35 35 34 31 29 29 29 27 26 26 26 26 26 27 28 28 29 29 29 30 30
20 20 21 23 22 20 20 21 19 20 20 20 20 22 23 23 24 25 25 26 28 29 29 31 28 25 24 21 19 21 22 21 21 20 18 18 18 19 20 21 22 21 18 16 16 28 43 48 48 49 46 44 46 47 45 43 42 41 40 39 38 38 37 36 35 34 33 32 30 29 29 29 28 28 27 27 27 27 29 30 30 30 31 32 33 32
19 20 22 23 22 21 21 21 20 20 20 21 22 21 21 22 24 24 23 25 27 26 28 32 30 27 25 21 18 21 23 22 22 22 21 20 20 21 21 21 23 23 20 17 15 20 33 45 48 49 49 47 46 46 46 44 42 41 40 39 39 37 36 35 34 33 32 32 31 31 31 30 29 29 30 29 29 31 32 33 33 34 35 36 37 37
17 19 22 23 23 23 22 22 22 20 19 20 19 18 18 19 20 21 21 23 25 25 27 31 31 27 25 22 21 22 24 24 22 21 23 23 22 23 21 20 23 24 22 18 14 13 21 38 48 48 49 49 46 45 45 44 43 41 40 39 39 38 37 37 35 34 33 33 32 32 32 31 32 33 33 33 35 37 37 37 38 38 38 38 39 40
17 19 21 22 23 23 22 21 20 18 18 19 18 17 18 17 17 18 19 22 24 24 25 29 31 28 26 25 25 25 25 25 24 21 23 25 25 25 22 20 21 23 23 20 15 10 10 26 43 47 46 46 46 46 46 45 44 43 40 40 40 39 38 37 36 34 33 32 32 33 33 34 36 37 38 38 39 40 41 41 42 43 43 43 43 42
16 17 19 21 23 24 24 22 20 19 20 19 18 19 19 17 16 17 19 22 23 23 24 27 29 30 30 28 28 27 26 25 24 20 18 19 23 24 23 21 21 21 21 20 18 14 7 11 27 40 45 46 46 46 45 45 44 43 42 42 42 40 39 38 36 34 33 33 34 35 35 36 36 36 37 38 37 38 40 41 41 42 44 45 45 45
16 16 17 20 22 23 23 22 20 20 21 19 18 20 19 17 16 18 20 21 21 21 23 24 25 28 29 28 27 28 27 24 22 20 17 15 19 22 21 21 21 20 19 18 18 18 12 6 12 26 37 43 47 46 44 44 44 44 43 43 43 42 39 37 35 34 34 35 36 36 36 35 33 33 35 36 35 37 39 39 39 41 42 42 42 45
17 17 17 19 22 23 22 20 18 19 20 19 18 19 18 17 18 19 19 20 20 21 22 21 21 23 26 26 26 26 26 23 21 22 21 19 19 21 20 20 22 21 19 17 16 16 14 9 9 14 21 28 37 40 39 38 39 39 39 42 44 44 42 40 38 38 38 37 36 34 34 34 34 34 35 34 34 34 34 32 32 35 37 38 39 42
18 17 16 17 20 23 24 24 24 22 21 19 19 19 19 19 20 20 19 20 20 20 21 20 19 20 24 27 26 24 24 23 21 20 21 19 19 21 20 20 22 22 20 18 16 15 15 12 10 12 14 17 24 27 26 25 26 26 27 30 33 35 36 37 35 34 34 33 32 30 27 24 24 25 27 26 25 27 30 30 28 29 33 36 38 39
20 18 17 16 18 20 22 24 25 24 22 20 20 20 20 20 21 21 21 21 20 19 20 21 20 21 24 26 26 24 23 22 22 21 21 20 20 21 21 21 22 22 21 19 16 15 16 13 10 12 15 17 19 21 20 18 18 19 20 21 23 23 25 27 28 29 29 29 30 30 25 19 16 16 17 16 15 18 24 26 25 26 29 31 34 37
21 20 20 19 20 20 21 23 24 23 22 22 20 20 20 21 21 22 22 22 22 21 21 22 22 23 24 25 27 26 23 22 23 25 25 23 21 22 23 23 23 21 20 20 17 15 15 16 13 13 15 16 16 17 17 16 15 15 16 18 19 20 20 22 23 25 26 27 28 28 26 23 20 18 16 14 12 13 16 18 18 18 17 16 17 23
22 21 21 22 23 22 23 25 25 24 23 23 22 21 21 21 22 23 23 23 23 23 24 24 24 24 25 26 27 27 24 24 24 25 26 25 23 23 25 25 24 22 20 20 18 16 14 15 15 15 14 14 14 15 16 17 16 15 15 15 16 17 18 20 20 20 21 23 25 26 26 24 24 23 20 16 14 14 14 15 14 14 12 9 8 9
22 21 20 23 23 23 24 25 25 24 24 23 23 23 23 23 24 24 24 24 24 25 26 26 24 25 26 27 28 28 27 27 26 25 26 26 24 23 24 25 24 21 19 19 19 17 15 14 14 14 13 13 13 13 14 15 14 13 12 11 11 11 12 14 16 17 18 19 21 22 23 22 22 22 22 19 18 18 18 18 16 15 13 12 11 10
22 19 19 21 22 24 26 26 24 24 24 24 23 23 23 24 25 25 25 25 26 27 28 27 25 26 27 28 29 29 29 29 29 28 27 27 25 23 22 21 21 20 18 18 19 19 17 13 12 13 14 15 14 12 12 13 13 12 11 11 10 11 12 13 14 15 16 17 18 19 19 19 19 20 21 21 20 20 21 20 19 18 18 18 17 17
22 19 19 20 20 21 24 26 25 24 24 24 24 24 24 24 25 25 26 27 28 29 31 31 28 27 28 29 30 31 31 30 30 29 28 27 27 25 23 21 19 19 18 18 19 20 18 15 13 13 14 14 14 12 11 12 12 11 11 11 11 12 13 14 14 14 14 14 16 17 18 18 19 20 22 22 22 22 22 21 20 20 20 20 21 21
25 23 21 20 18 19 21 23 25 24 23 22 22 23 23 23 23 25 26 27 28 30 31 33 31 28 28 29 30 31 32 33 32 30 29 28 27 26 26 25 24 23 22 21 20 20 19 18 17 16 15 15 14 13 12 12 11 11 11 11 11 11 12 14 15 14 14 14 14 15 16 17 18 20 20 22 22 22 22 22 21 21 22 22 22 23
27 26 24 22 20 20 20 21 23 24 23 22 21 21 21 22 22 24 25 26 27 28 30 32 31 29 28 29 30 31 33 33 32 31 30 29 30 29 29 28 27 26 25 23 21 21 21 19 19 18 17 16 15 15 14 13 12 12 12 12 13 13 14 16 17 18 18 18 18 18 18 19 20 20 21 22 22 23 23 23 23 23 23 23 24 25
Wind_Direction
203 203 203 205 208 213 214 213 210 205 206 211 215 218 219 225 235 235 236 238 233 233 238 236 234 236 240 239 237 234 219 210 207 202 206 209 206 205 197 197 206 199 193 199 201 200 200 195 188 186 184 182 179 177 175 174 177 176 173 173 170 167 167 166 168 170 169 168 165 164 164 161 161 163 164 165 165 166 164 161 162 162 163 164 165 166
212 208 202 210 214 221 230 220 214 213 212 215 220 220 218 223 232 235 237 242 236 231 245 244 234 235 242 240 239 241 222 209 208 205 206 209 207 207 201 196 204 204 194 197 204 203 202 200 195 190 186 185 182 179 177 175 177 181 178 174 173 170 168 167 167 170 171 169 168 167 167 165 164 166 167 167 167 168 168 167 167 168 168 169 170 170
216 215 214 223 223 226 235 224 216 218 218 220 225 226 225 225 231 239 239 242 239 232 242 249 238 236 241 242 241 243 227 210 208 207 204 204 206 206 205 200 199 202 198 197 204 206 203 203 202 193 187 186 182 180 179 177 179 184 182 179 177 175 173 171 168 168 169 168 168 167 167 166 165 167 169 169 169 170 171 171 172 173 174 174 174 174
208 224 230 229 226 225 231 227 221 222 221 223 226 225 231 233 232 237 240 243 244 238 239 247 244 240 240 241 240 241 235 214 206 206 203 202 207 206 204 204 199 199 203 200 202 207 204 204 206 197 187 185 183 181 179 179 182 184 185 183 181 180 180 177 172 170 169 167 166 165 164 164 164 166 170 172 172 173 175 176 176 177 178 179 179 179
209 230 239 226 224 229 234 234 229 226 225 227 228 225 226 234 233 229 232 241 247 246 246 247 248 244 240 240 240 240 240 219 206 206 204 203 210 210 204 204 201 199 204 203 203 206 204 205 208 201 191 187 185 182 180 180 183 185 188 187 186 185 184 184 180 173 171 168 163 161 159 159 160 164 168 172 173 173 175 177 178 180 182 182 184 185
228 240 240 220 224 229 234 238 236 235 233 231 235 236 232 236 239 231 227 236 248 255 253 244 245 246 240 241 243 241 240 227 213 209 207 206 209 209 204 202 202 202 202 202 204 206 204 205 208 204 196 190 187 182 179 181 183 185 189 191 189 189 186 186 186 177 172 168 160 157 156 156 159 160 163 166 167 167 169 171 173 178 183 185 188 189
238 243 235 225 230 229 231 240 240 240 239 234 235 242 239 239 241 235 229 235 243 251 252 243 244 246 241 244 247 244 240 233 223 214 210 206 203 203 205 203 202 203 203 202 205 206 205 205 206 206 201 193 187 183 180 181 183 184 188 190 190 189 188 187 187 180 172 167 162 159 158 159 159 157 156 154 155 158 160 161 162 170 177 181 186 188
242 241 233 230 232 230 232 239 243 241 237 235 233 234 241 245 243 237 231 234 240 244 246 243 242 242 242 244 250 250 240 235 237 223 210 204 200 201 206 206 203 203 203 203 204 207 207 205 206 207 203 196 189 185 184 183 183 185 185 185 186 188 190 188 187 185 177 171 170 167 166 165 161 156 153 149 149 150 150 152 154 158 163 167 173 178
251 242 235 233 233 234 238 240 243 245 237 230 237 239 246 253 249 239 231 232 237 240 243 246 244 242 243 245 250 255 242 236 246 228 209 205 205 204 205 206 205 205 204 203 205 209 208 206 207 206 203 198 192 188 187 187 185 185 183 181 181 186 189 189 188 186 183 179 178 176 172 169 162 155 153 149 147 146 145 147 148 148 149 151 154 158
262 247 241 236 233 232 237 240 242 249 244 234 241 245 248 253 250 238 232 233 233 235 240 246 246 243 247 251 252 256 247 241 245 221 205 205 207 206 205 206 206 206 206 204 205 209 209 209 209 206 202 199 196 192 190 190 188 186 184 182 180 183 189 191 188 186 186 186 185 181 177 172 166 160 156 153 150 149 148 145 142 141 139 138 139 139
256 246 247 236 233 236 240 247 249 251 248 243 248 251 250 253 252 238 232 237 236 233 237 242 244 244 247 253 254 256 254 245 240 224 211 208 208 207 206 207 207 207 208 206 204 207 208 209 211 207 203 201 199 196 193 193 192 189 187 185 181 182 188 191 188 187 187 188 187 184 180 176 174 170 165 161 157 155 153 149 145 142 139 135 135 133
269 247 247 242 239 247 252 255 257 254 249 249 252 253 251 252 253 242 233 240 241 236 239 241 244 247 246 247 251 256 259 250 242 237 226 213 207 207 208 208 208 208 210 208 206 207 206 207 210 209 204 202 202 200 197 196 196 194 191 188 184 184 188 191 190 188 188 189 188 185 183 179 178 180 175 169 167 166 163 160 157 154 151 148 145 141
301 266 255 251 244 246 251 254 259 258 252 252 252 248 246 243 243 241 236 240 242 236 239 242 244 247 245 246 251 257 262 260 250 246 240 219 207 206 207 206 207 211 212 210 208 207 205 204 209 211 207 203 204 202 200 202 200 198 196 193 190 188 189 191 191 191 191 190 189 186 185 182 181 184 183 180 176 175 175 172 169 169 168 166 160 156
306 294 288 270 255 246 241 239 250 257 249 245 248 245 239 234 238 242 239 238 241 240 242 245 248 246 242 246 251 253 258 262 258 251 246 226 208 205 207 206 206 212 213 212 211 208 205 204 207 211 208 204 205 203 202 205 205 202 200 198 196 193 193 194 194 194 193 191 191 189 188 186 184 186 187 186 184 183 185 181 179 182 182 182 181 179
243 283 291 268 258 249 237 231 234 252 255 239 239 242 234 228 232 240 241 238 236 239 241 242 245 243 238 243 248 249 252 258 260 255 247 234 214 208 209 206 206 212 213 212 211 209 205 203 204 209 208 205 205 205 204 205 206 205 204 202 201 199 198 197 197 196 195 193 193 194 193 190 188 189 190 190 190 190 191 190 189 191 193 195 197 198
205 264 270 251 254 251 243 243 242 251 259 242 235 239 235 231 233 235 244 244 232 228 234 236 237 238 237 240 244 246 249 254 259 256 245 237 225 216 211 208 206 210 212 212 210 207 205 204 203 206 208 206 205 206 207 207 206 207 207 206 205 205 204 202 201 199 198 196 197 199 199 198 195 192 193 193 192 193 194 196 196 198 200 202 204 209
196 245 262 268 270 256 247 249 250 246 243 240 236 234 228 227 233 233 236 239 228 224 234 239 233 236 242 240 239 243 247 252 256 256 247 238 233 227 218 212 210 210 211 211 210 207 205 205 204 205 207 206 204 206 208 210 208 208 210 209 208 209 208 207 205 202 202 200 201 203 204 206 205 200 200 200 198 198 199 200 201 202 205 208 210 215
228 229 263 282 268 253 252 249 252 250 242 241 240 236 230 228 232 232 231 234 231 227 235 238 228 231 240 240 239 242 243 243 244 247 247 241 236 236 227 215 212 212 212 210 210 208 206 205 203 204 207 206 204 205 208 211 211 210 211 211 210 211 210 210 209 206 206 205 205 207 208 210 211 209 208 209 207 208 207 206 207 208 210 214 218 222
253 220 255 283 262 253 264 255 252 252 246 243 243 242 237 233 232 230 230 236 235 233 237 236 230 233 240 241 237 232 236 241 240 238 240 241 238 237 235 224 215 213 212 210 209 210 209 206 203 204 207 207 206 206 208 211 212 211 212 212 212 212 210 210 212 211 210 208 209 212 213 212 215 216 215 216 215 215 215 214 215 216 217 220 224 228
265 223 226 258 268 266 264 254 247 248 249 245 245 247 241 235 234 228 229 234 230 229 236 231 223 231 238 240 235 229 234 245 244 237 232 231 236 237 238 237 225 215 213 211 209 210 211 208 204 205 207 207 207 207 208 211 213 214 212 212 215 214 211 210 212 214 214 213 212 214 216 216 219 221 221 222 222 222 221 219 219 222 223 224 226 228
263 241 235 241 261 278 267 257 251 250 260 246 236 241 241 236 234 229 233 238 225 223 232 230 222 230 238 238 236 233 234 230 224 230 229 223 226 235 238 241 236 221 214 213 211 210 210 208 206 207 207 208 208 208 209 210 213 215 214 214 216 216 214 212 213 214 217 218 217 216 217 218 220 222 223 225 226 227 227 226 224 226 227 229 230 229
254 249 264 247 251 274 271 266 260 256 268 264 238 235 237 236 235 235 242 246 227 222 231 235 231 231 236 239 235 231 232 226 218 219 234 223 220 226 234 238 241 229 215 213 213 212 211 208 207 209 210 210 210 209 209 211 213 216 216 216 218 219 218 217 217 218 220 223 224 222 221 220 221 223 225 226 227 229 230 230 229 230 231 232 233 233
263 264 274 254 240 257 262 261 262 263 270 270 250 239 238 237 236 240 246 242 230 228 231 237 237 233 236 241 230 226 232 228 220 221 235 231 220 222 229 234 238 234 219 212 212 213 213 210 209 211 212 212 212 210 210 213 215 216 217 218 220 221 222 222 221 222 223 225 227 227 227 226 225 227 228 229 230 231 231 233 233 234 236 237 238 238
262 257 261 256 243 246 258 263 264 269 271 263 252 245 239 234 230 235 245 237 230 231 231 234 237 234 235 240 233 233 240 233 223 228 236 238 229 226 231 233 233 235 223 214 212 214 215 213 211 212 213 214 214 213 212 213 215 217 218 218 219 221 222 224 224 225 226 228 229 229 229 229 229 230 231 232 234 234 235 236 236 238 240 242 243 244
259 252 254 256 253 254 266 273 268 265 264 257 250 241 230 225 227 235 243 236 225 226 230 232 232 233 235 237 237 242 247 237 228 234 239 238 235 231 235 236 231 234 226 214 212 214 215 214 212 213 214 215 216 216 215 216 215 217 219 219 220 220 221 223 225 226 227 228 230 231 232 233 232 233 234 236 237 237 238 239 240 242 244 247 248 248
257 259 260 256 255 255 254 261 267 269 269 263 250 239 238 237 235 237 239 237 228 223 226 229 230 235 234 230 234 242 241 232 227 234 239 237 234 232 238 241 234 233 231 218 213 213 216 216 214 213 214 216 217 218 218 218 216 217 219 219 220 221 222 222 224 226 228 229 231 232 233 235 236 236 237 239 240 240 240 241 242 243 245 249 251 252
256 260 264 257 255 256 254 258 266 270 270 270 259 248 251 249 242 239 233 230 229 225 227 231 233 237 233 220 228 238 233 226 226 231 235 234 231 231 236 243 240 234 236 230 218 213 215 217 216 215 215 217 219 219 220 219 218 219 220 220 221 222 223 224 225 226 229 230 232 233 234 235 236 238 240 241 244 245 245 245 245 245 246 249 253 254
255 259 261 259 256 256 258 261 266 266 263 267 265 256 253 247 243 245 237 227 226 226 231 236 233 234 231 222 229 238 227 222 227 231 230 228 226 227 231 238 244 239 238 243 228 216 215 218 218 216 216 218 220 219 220 220 219 220 222 223 224 226 226 227 227 228 230 231 232 234 235 237 238 240 242 244 246 248 249 250 251 251 250 251 253 255
250 256 259 262 262 260 262 264 266 268 266 266 265 258 253 250 245 244 241 237 234 229 232 235 226 223 224 225 237 240 224 219 229 233 227 223 222 225 227 231 240 243 241 245 236 219 215 218 220 218 217 220 222 221 221 221 220 221 224 225 227 229 231 231 231 231 232 232 234 237 238 240 241 243 245 247 249 252 255 257 258 259 259 258 258 258
248 252 254 258 263 263 267 269 268 270 270 266 263 257 255 253 245 239 239 243 245 239 235 231 223 221 223 228 237 234 217 219 243 240 232 226 221 224 227 227 232 240 246 245 235 220 214 216 220 221 219 220 223 223 222 222 221 221 223 225 227 230 233 235 235 236 236 236 238 240 242 244 245 246 248 251 253 256 260 262 264 264 264 264 265 264
246 250 251 255 260 263 270 275 273 272 270 268 266 262 257 251 245 242 240 242 246 247 240 230 226 229 231 234 238 231 221 234 251 241 232 226 223 225 227 227 227 233 247 245 228 220 218 217 218 220 220 219 222 223 222 222 222 222 223 225 227 230 234 236 237 238 239 240 240 241 243 245 247 248 250 251 251 253 255 257 260 261 260 262 264 265
243 246 253 256 257 262 273 277 271 268 271 275 275 269 262 253 247 244 242 239 240 244 244 239 237 237 239 248 249 238 234 246 248 239 234 231 228 229 228 228 227 230 245 239 220 217 222 219 216 217 219 219 221 221 221 221 221 222 223 225 227 230 233 236 238 239 240 242 242 241 244 247 248 249 250 250 250 250 252 254 257 258 259 258 258 258
247 243 251 256 254 257 264 261 262 271 277 276 274 271 266 260 252 247 245 241 238 241 243 242 240 235 236 251 256 242 238 248 249 242 242 240 234 232 231 227 224 230 248 239 218 214 216 216 215 217 218 218 218 218 219 220 220 220 222 224 227 230 232 235 238 240 241 243 244 244 247 249 250 250 252 253 253 252 252 253 255 257 258 256 255 257
257 245 245 251 253 254 258 259 266 277 277 272 272 272 268 263 256 251 250 247 245 246 244 239 238 234 235 245 249 243 242 248 248 245 245 244 240 238 237 232 225 229 249 249 223 214 212 212 213 215 215 215 217 218 218 219 220 222 223 225 227 230 232 234 237 239 242 243 243 245 248 249 250 250 250 251 252 252 252 252 254 256 257 256 257 258
266 254 246 249 251 248 250 261 271 277 276 275 276 273 268 265 260 253 251 250 249 249 244 237 235 238 244 247 242 239 244 246 246 247 246 244 243 243 242 239 234 233 245 262 239 220 213 212 214 215 213 213 216 218 219 219 220 222 224 226 228 229 230 232 233 236 239 239 239 242 243 243 244 245 245 246 247 248 250 251 253 257 259 260 260 259
264 258 250 248 250 248 251 262 269 271 275 279 277 273 269 267 261 253 249 248 249 247 242 238 235 237 245 248 239 236 239 241 244 248 248 245 245 246 245 243 241 239 248 269 263 231 219 216 217 218 216 215 217 218 218 218 219 222 224 226 229 230 231 232 232 234 236 236 237 238 237 237 240 242 244 246 249 251 252 252 252 255 260 262 261 260
261 255 250 247 247 247 251 258 262 267 275 279 277 276 273 267 262 256 250 248 249 246 242 240 240 241 241 239 236 235 234 235 241 247 248 247 246 246 247 245 241 242 250 266 272 250 229 219 218 219 218 219 221 221 221 221 222 224 226 228 230 232 233 234 233 234 235 236 237 237 238 240 242 245 247 249 251 253 254 255 254 255 257 258 258 259
265 255 249 245 244 247 251 257 262 266 271 272 273 275 273 266 262 257 250 247 249 247 243 242 244 246 242 234 231 235 236 237 241 245 247 248 248 249 250 249 242 242 250 258 267 271 239 221 219 220 218 219 222 222 222 224 224 225 227 229 230 230 232 234 234 234 235 238 239 241 244 247 249 251 254 255 255 255 256 256 255 255 255 253 255 258
271 258 249 243 241 245 249 254 260 264 265 266 270 273 272 269 266 259 249 244 244 243 243 242 241 243 242 232 227 232 236 238 241 246 249 247 246 248 252 254 248 244 249 253 259 279 255 221 220 222 219 219 222 223 223 225 226 225 227 230 231 230 231 233 234 236 239 243 245 248 249 252 255 258 259 259 258 258 257 255 254 255 256 255 255 257
270 257 248 242 239 242 247 251 256 261 263 266 268 269 271 272 268 257 247 243 242 241 243 241 235 235 237 234 229 229 231 236 241 245 246 242 240 243 250 255 253 249 249 250 252 261 262 214 216 220 221 222 225 227 227 229 230 230 229 231 232 232 232 234 236 239 243 246 249 252 254 256 258 260 260 259 258 258 257 255 254 254 255 255 256 257
267 260 248 239 237 241 247 251 254 255 258 262 264 265 268 269 261 252 247 246 245 242 244 244 235 230 233 235 231 226 226 234 241 244 247 250 246 245 249 253 253 251 249 249 250 250 247 229 212 212 214 219 224 227 230 232 234 235 235 233 232 231 231 232 235 240 244 248 252 255 257 257 254 253 254 254 253 254 256 258 258 257 255 253 252 253
260 259 251 241 238 240 244 248 251 251 252 256 259 261 264 261 256 252 250 249 247 243 244 247 240 233 234 233 228 225 228 233 238 241 247 254 251 248 250 252 252 252 250 250 253 247 243 252 242 211 200 206 213 220 226 230 232 233 235 235 235 235 235 235 236 240 243 246 249 252 255 256 250 246 246 245 244 245 247 250 252 253 252 249 246 247
250 252 251 244 240 240 243 247 251 253 253 254 257 261 263 260 257 257 254 251 250 247 246 246 242 236 236 234 228 224 226 229 230 235 242 246 247 249 251 251 251 251 250 252 260 255 248 257 255 221 195 187 197 206 211 213 212 211 213 219 224 228 230 230 230 230 231 233 235 237 244 250 246 241 242 245 246 240 233 232 236 241 247 250 250 249
250 248 245 242 238 238 241 244 249 253 255 255 257 260 262 261 258 258 256 254 253 253 250 246 240 235 235 235 231 226 223 223 226 234 241 242 241 245 249 251 252 252 249 253 265 264 251 250 248 223 203 192 194 202 203 201 202 204 205 205 203 203 207 211 213 215 219 222 224 228 232 238 242 245 251 258 253 233 225 230 238 245 251 257 257 254
250 244 240 240 239 237 238 241 245 250 253 255 258 261 263 263 260 258 257 255 254 254 252 246 241 237 235 234 234 232 228 226 229 233 237 237 235 237 243 247 251 253 250 251 264 269 254 243 236 225 216 207 201 205 208 207 209 215 218 219 215 211 212 214 215 218 222 224 227 233 238 243 252 262 271 275 262 234 225 232 240 247 254 262 263 256
251 247 243 241 239 239 240 242 244 249 253 256 261 263 264 264 261 259 257 255 252 252 251 247 242 240 237 234 234 234 229 226 227 229 231 234 233 231 235 239 245 251 250 247 255 266 260 244 232 225 223 219 214 214 216 215 215 220 226 228 227 225 227 230 232 234 237 238 241 246 251 255 260 265 269 273 267 252 243 241 243 249 255 259 266 258
251 252 250 246 244 243 244 245 247 250 252 256 260 264 265 264 262 259 257 255 254 252 251 249 245 243 241 236 233 232 227 223 223 223 226 231 228 221 222 229 234 240 244 241 244 253 257 248 234 222 216 216 217 219 223 224 225 231 236 234 232 233 236 240 244 246 248 250 253 256 259 262 265 267 268 270 268 262 257 252 250 254 259 260 262 260
249 250 251 250 247 244 244 245 247 249 252 256 259 262 263 263 263 263 261 260 258 256 255 253 248 244 243 238 234 232 228 224 222 219 220 225 222 214 217 226 228 228 229 227 229 238 246 247 239 226 218 221 225 225 228 232 232 234 237 235 235 241 248 254 256 255 254 254 255 258 261 263 263 264 265 265 263 259 257 257 258 261 266 268 267 264
248 249 250 249 248 248 246 244 246 249 253 255 257 260 262 263 263 264 263 262 261 260 259 257 252 246 243 240 235 232 230 227 225 221 219 219 217 213 215 221 219 215 216 217 219 224 229 232 235 232 227 227 229 226 225 231 233 235 239 240 239 242 246 250 256 259 257 255 254 255 257 259 260 260 260 261 261 260 261 264 268 269 271 271 270 269
245 248 252 251 249 249 248 245 245 248 251 254 257 258 260 261 262 263 264 264 263 261 260 258 254 249 244 241 236 231 229 227 224 220 217 215 216 216 216 217 216 215 217 220 219 216 215 218 226 232 233 233 233 231 230 235 241 243 245 247 244 242 242 246 252 257 258 257 256 256 257 259 262 263 265 267 269 271 273 275 275 275 276 276 276 275
244 244 248 249 244 244 246 246 245 246 250 255 258 259 261 264 264 263 263 263 262 261 260 259 257 252 245 240 234 229 227 224 220 215 212 211 215 219 218 215 214 216 217 217 215 213 213 215 219 225 231 235 239 242 241 243 248 251 251 250 247 244 244 246 249 252 255 255 256 257 258 261 263 266 268 271 273 276 278 279 279 278 277 276 275 275
Height
5871 5871 5872 5873 5873 5875 5877 5876 5876 5878 5879 5880 5881 5883 5884 5884 5884 5884 5884 5884 5886 5887 5889 5890 5890 5890 5891 5892 5893 5894 5896 5898 5899 5899 5899 5901 5903 5903 5904 5905 5905 5906 5907 5908 5908 5909 5910 5910 5911 5912 5913 5914 5914 5915 5916 5917 5917 5918 5919 5919 5920 5921 5921 5922 5922 5922 5923 5923 5923 5924 5925 5925 5926 5926 5927 5927 5928 5929 5929 5930 5931 5932 5933 5933 5934 5934
5870 5871 5871 5872 5872 5873 5874 5873 5875 5877 5878 5879 5880 5881 5883 5883 5882 5882 5882 5883 5884 5886 5887 5888 5888 5889 5890 5891 5892 5893 5895 5897 5898 5898 5898 5899 5902 5903 5904 5904 5905 5906 5907 5907 5908 5909 5909 5910 5911 5912 5913 5914 5915 5915 5916 5917 5918 5918 5919 5920 5920 5921 5922 5922 5923 5923 5923 5924 5924 5925 5925 5925 5926 5927 5927 5928 5929 5930 5930 5931 5932 5933 5933 5934 5934 5935
5869 5870 5871 5871 5871 5871 5871 5872 5874 5876 5877 5879 5879 5881 5882 5882 5881 5881 5881 5882 5883 5885 5886 5886 5887 5888 5888 5889 5891 5892 5894 5894 5895 5897 5899 5899 5900 5902 5903 5903 5904 5905 5906 5907 5908 5908 5909 5910 5911 5912 5913 5914 5915 5915 5916 5917 5918 5919 5919 5920 5921 5921 5922 5923 5923 5924 5924 5925 5925 5925 5926 5926 5927 5927 5928 5929 5929 5930 5931 5932 5932 5933 5934 5934 5935 5935
5869 5870 5869 5869 5870 5870 5870 5871 5873 5874 5877 5878 5879 5881 5882 5881 5880 5880 5880 5881 5882 5884 5885 5886 5886 5887 5887 5888 5889 5891 5892 5893 5894 5896 5899 5898 5898 5900 5902 5903 5903 5904 5906 5906 5907 5908 5909 5910 5911 5912 5912 5914 5915 5915 5916 5917 5918 5919 5920 5920 5921 5922 5922 5923 5923 5924 5924 5925 5925 5926 5926 5927 5927 5928 5929 5930 5930 5931 5932 5932 5933 5933 5934 5934 5935 5936
5867 5867 5867 5868 5869 5870 5870 5871 5872 5873 5875 5876 5877 5879 5880 5879 5878 5878 5878 5880 5881 5883 5884 5885 5885 5886 5886 5886 5887 5889 5890 5892 5893 5894 5895 5896 5897 5899 5900 5901 5903 5903 5904 5905 5906 5907 5908 5909 5910 5911 5912 5913 5914 5915 5916 5917 5918 5919 5920 5920 5921 5922 5923 5923 5924 5924 5925 5925 5926 5926 5927 5927 5928 5929 5930 5930 5931 5931 5932 5933 5933 5934 5934 5935 5935 5936
5865 5864 5866 5867 5867 5869 5870 5870 5871 5873 5874 5876 5877 5878 5878 5877 5876 5876 5878 5880 5880 5881 5882 5883 5883 5883 5884 5884 5885 5887 5889 5891 5892 5892 5893 5894 5895 5897 5899 5900 5902 5902 5903 5905 5906 5907 5907 5909 5910 5911 5912 5913 5914 5915 5916 5917 5918 5919 5920 5920 5921 5922 5923 5923 5924 5925 5926 5926 5927 5927 5928 5928 5929 5930 5930 5931 5931 5932 5933 5933 5933 5934 5934 5935 5936 5937
5863 5863 5865 5866 5866 5868 5869 5869 5870 5871 5872 5874 5876 5876 5876 5875 5874 5875 5878 5879 5879 5880 5880 5880 5882 5881 5882 5883 5883 5885 5887 5889 5890 5891 5891 5892 5893 5896 5897 5899 5901 5902 5903 5904 5905 5906 5907 5908 5910 5911 5912 5913 5913 5915 5916 5917 5918 5919 5919 5920 5921 5922 5923 5924 5925 5925 5926 5927 5927 5928 5928 5929 5930 5930 5931 5932 5932 5933 5933 5934 5934 5935 5935 5936 5937 5937
5860 5861 5863 5864 5865 5866 5867 5867 5868 5868 5870 5872 5872 5872 5872 5871 5872 5874 5877 5878 5877 5877 5878 5879 5880 5881 5881 5881 5881 5882 5884 5886 5888 5889 5889 5891 5892 5894 5896 5898 5900 5901 5902 5903 5904 5905 5906 5907 5909 5910 5912 5913 5913 5914 5915 5916 5918 5918 5919 5920 5921 5922 5923 5924 5925 5926 5927 5927 5928 5928 5929 5930 5930 5931 5932 5932 5933 5933 5934 5934 5935 5935 5936 5937 5937 5938
5859 5861 5862 5863 5864 5865 5865 5866 5865 5865 5868 5870 5869 5868 5868 5868 5870 5872 5874 5875 5874 5875 5877 5878 5879 5880 5880 5880 5880 5881 5882 5883 5884 5885 5887 5890 5891 5893 5895 5896 5898 5900 5901 5902 5903 5904 5905 5907 5908 5910 5911 5912 5913 5914 5915 5916 5917 5918 5919 5920 5921 5922 5923 5924 5925 5926 5927 5927 5928 5929 5930 5930 5931 5932 5933 5933 5934 5934 5935 5936 5936 5936 5937 5937 5938 5938
5859 5860 5861 5862 5863 5863 5863 5863 5863 5863 5866 5866 5865 5866 5867 5867 5868 5870 5871 5872 5872 5873 5876 5876 5877 5879 5878 5878 5878 5879 5880 5882 5882 5883 5886 5888 5890 5892 5893 5895 5897 5899 5900 5901 5902 5903 5904 5906 5907 5909 5910 5911 5913 5913 5914 5916 5917 5918 5919 5920 5921 5922 5923 5924 5925 5926 5927 5928 5929 5929 5930 5931 5932 5933 5934 5934 5935 5935 5936 5937 5937 5937 5938 5938 5939 5939
5858 5859 5859 5861 5861 5861 5860 5861 5861 5862 5863 5863 5863 5865 5866 5866 5867 5868 5869 5870 5870 5872 5874 5874 5876 5877 5877 5876 5876 5876 5878 5880 5882 5883 5885 5886 5888 5890 5892 5894 5896 5897 5899 5900 5901 5902 5903 5904 5906 5908 5909 5911 5912 5913 5914 5915 5917 5918 5919 5920 5921 5922 5923 5924 5925 5926 5927 5928 5929 5930 5931 5932 5933 5934 5934 5935 5935 5936 5937 5937 5938 5938 5938 5939 5939 5939
5857 5858 5858 5859 5860 5859 5859 5860 5860 5860 5861 5861 5862 5864 5865 5866 5866 5867 5868 5868 5869 5871 5871 5872 5874 5875 5876 5875 5875 5875 5876 5878 5879 5881 5883 5885 5886 5888 5890 5893 5894 5896 5898 5899 5900 5901 5902 5903 5905 5907 5908 5910 5911 5912 5913 5915 5916 5917 5919 5920 5921 5922 5923 5924 5925 5926 5927 5928 5929 5930 5931 5932 5933 5934 5934 5935 5935 5936 5937 5937 5938 5938 5939 5939 5939 5939
5857 5857 5858 5857 5857 5858 5858 5859 5859 5858 5859 5859 5861 5862 5864 5865 5864 5865 5866 5867 5868 5869 5869 5870 5872 5874 5874 5874 5873 5874 5874 5875 5877 5878 5881 5883 5884 5887 5889 5891 5893 5894 5896 5897 5899 5900 5901 5902 5904 5906 5907 5908 5910 5911 5913 5914 5915 5917 5918 5919 5921 5921 5922 5924 5925 5926 5927 5928 5930 5930 5931 5932 5933 5934 5934 5935 5935 5936 5937 5937 5938 5938 5939 5939 5939 5940
5861 5857 5856 5856 5856 5855 5856 5857 5858 5857 5856 5857 5859 5860 5861 5862 5863 5863 5865 5866 5868 5867 5866 5868 5870 5871 5872 5872 5871 5872 5872 5873 5875 5876 5878 5881 5882 5885 5887 5889 5891 5893 5894 5896 5898 5899 5900 5901 5902 5904 5906 5907 5909 5910 5912 5913 5914 5916 5918 5919 5920 5921 5922 5923 5925 5926 5927 5928 5930 5931 5931 5932 5933 5934 5934 5935 5935 5936 5937 5938 5938 5938 5939 5939 5939 5940
5862 5858 5854 5855 5854 5853 5854 5855 5855 5855 5854 5855 5856 5857 5858 5860 5861 5863 5864 5865 5865 5864 5864 5866 5867 5869 5870 5870 5869 5870 5871 5872 5873 5875 5877 5879 5881 5883 5884 5886 5888 5890 5892 5894 5896 5898 5899 5899 5901 5903 5905 5906 5907 5909 5910 5912 5913 5915 5917 5918 5920 5921 5922 5923 5924 5926 5927 5928 5929 5930 5931 5932 5932 5933 5934 5935 5936 5936 5937 5938 5938 5938 5939 5939 5940 5940
5861 5859 5853 5852 5853 5852 5853 5853 5852 5853 5853 5852 5854 5855 5856 5857 5859 5861 5863 5862 5861 5861 5861 5863 5866 5867 5867 5867 5867 5869 5870 5870 5871 5873 5875 5878 5880 5881 5882 5884 5886 5888 5890 5892 5894 5896 5897 5898 5899 5901 5903 5904 5906 5907 5909 5910 5912 5914 5916 5917 5919 5920 5922 5923 5924 5926 5927 5928 5929 5930 5931 5932 5932 5933 5934 5935 5936 5936 5937 5938 5938 5939 5939 5940 5940 5940
5859 5858 5852 5851 5852 5850 5850 5851 5850 5851 5851 5850 5851 5852 5853 5855 5856 5858 5860 5859 5858 5859 5860 5861 5863 5865 5864 5865 5866 5867 5868 5869 5869 5871 5873 5875 5878 5879 5881 5883 5885 5886 5888 5890 5892 5894 5896 5897 5898 5899 5901 5903 5904 5906 5907 5909 5911 5913 5915 5916 5918 5920 5921 5923 5924 5925 5927 5928 5929 5930 5931 5932 5932 5933 5934 5935 5936 5936 5937 5938 5938 5939 5939 5940 5940 5940
5854 5855 5852 5851 5851 5848 5847 5849 5849 5848 5849 5849 5849 5850 5851 5852 5853 5854 5855 5856 5857 5858 5859 5860 5862 5863 5863 5864 5864 5864 5865 5866 5867 5868 5870 5872 5875 5877 5879 5881 5883 5885 5886 5888 5890 5892 5893 5894 5896 5897 5899 5901 5902 5904 5906 5907 5909 5911 5913 5915 5917 5919 5920 5922 5923 5925 5926 5927 5929 5930 5931 5932 5932 5933 5934 5935 5935 5936 5937 5937 5938 5939 5939 5940 5940 5941
5851 5853 5853 5850 5849 5847 5846 5847 5847 5847 5847 5847 5847 5848 5849 5850 5851 5852 5853 5854 5856 5857 5858 5858 5860 5861 5861 5862 5862 5862 5863 5863 5864 5865 5867 5869 5871 5873 5876 5878 5879 5881 5883 5885 5888 5890 5891 5893 5894 5895 5897 5899 5900 5902 5904 5906 5908 5910 5912 5914 5916 5917 5919 5921 5923 5924 5925 5926 5928 5929 5930 5931 5932 5933 5934 5934 5935 5936 5936 5937 5938 5938 5939 5939 5940 5940
5849 5851 5852 5850 5848 5846 5845 5845 5845 5845 5846 5845 5846 5847 5847 5848 5849 5850 5850 5852 5853 5855 5856 5856 5858 5859 5858 5859 5860 5860 5862 5862 5862 5863 5863 5865 5868 5870 5872 5874 5876 5878 5881 5882 5885 5887 5889 5891 5892 5893 5895 5897 5898 5900 5902 5904 5906 5908 5910 5913 5914 5916 5918 5920 5921 5922 5923 5925 5926 5928 5929 5930 5932 5933 5933 5934 5935 5935 5936 5937 5937 5938 5938 5939 5939 5940
5847 5847 5848 5849 5847 5845 5844 5843 5843 5843 5843 5843 5844 5845 5846 5847 5848 5848 5848 5849 5851 5852 5853 5854 5854 5854 5855 5857 5858 5859 5860 5860 5861 5862 5860 5860 5863 5866 5869 5871 5873 5876 5878 5880 5882 5885 5887 5889 5890 5891 5893 5895 5896 5897 5900 5902 5905 5907 5909 5911 5912 5914 5916 5918 5919 5921 5922 5923 5925 5926 5928 5929 5930 5931 5932 5933 5934 5934 5935 5936 5936 5937 5938 5938 5939 5939
5845 5844 5845 5847 5847 5846 5844 5842 5841 5841 5841 5842 5843 5844 5844 5846 5846 5846 5846 5847 5849 5851 5852 5852 5852 5852 5853 5855 5856 5857 5858 5858 5858 5860 5859 5857 5858 5862 5865 5867 5870 5872 5874 5877 5880 5882 5884 5886 5887 5889 5891 5892 5894 5896 5898 5900 5902 5904 5907 5909 5910 5912 5914 5916 5917 5919 5921 5922 5923 5925 5926 5928 5929 5930 5930 5931 5932 5933 5934 5935 5935 5936 5937 5937 5938 5938
5842 5842 5842 5843 5845 5846 5843 5840 5839 5840 5840 5842 5842 5842 5843 5844 5845 5845 5845 5846 5847 5848 5850 5851 5851 5851 5851 5852 5853 5854 5855 5855 5855 5856 5857 5856 5854 5857 5861 5863 5866 5869 5870 5874 5877 5879 5881 5884 5885 5887 5888 5890 5892 5894 5896 5898 5900 5902 5905 5907 5908 5910 5912 5913 5915 5917 5919 5920 5922 5923 5925 5926 5927 5928 5929 5930 5930 5932 5932 5933 5934 5935 5935 5936 5937 5938
5840 5840 5839 5839 5841 5843 5841 5838 5838 5838 5839 5840 5841 5841 5842 5843 5843 5844 5844 5844 5845 5846 5847 5849 5849 5849 5850 5850 5851 5852 5851 5852 5853 5853 5854 5854 5852 5854 5858 5860 5863 5866 5867 5871 5875 5876 5878 5881 5882 5884 5886 5888 5891 5893 5894 5896 5898 5900 5902 5905 5906 5908 5910 5911 5913 5915 5917 5918 5920 5921 5923 5924 5925 5926 5927 5928 5929 5930 5931 5932 5933 5933 5934 5935 5936 5937
5838 5838 5838 5838 5839 5840 5839 5837 5836 5836 5836 5837 5838 5838 5840 5841 5841 5841 5842 5841 5842 5844 5845 5846 5846 5846 5847 5848 5849 5849 5848 5848 5850 5851 5850 5851 5851 5853 5855 5857 5860 5862 5864 5867 5870 5873 5875 5877 5879 5881 5884 5887 5889 5892 5893 5895 5896 5898 5900 5902 5904 5906 5908 5910 5911 5913 5915 5916 5917 5919 5920 5922 5923 5924 5925 5926 5927 5928 5929 5930 5931 5932 5933 5934 5935 5936
5837 5836 5836 5836 5837 5837 5837 5836 5834 5834 5835 5835 5836 5837 5837 5838 5837 5838 5839 5839 5840 5842 5842 5843 5844 5844 5844 5845 5846 5847 5846 5845 5847 5849 5849 5850 5851 5852 5854 5855 5857 5859 5861 5863 5866 5869 5872 5874 5876 5879 5881 5884 5887 5889 5891 5892 5894 5896 5898 5900 5902 5904 5906 5908 5909 5911 5913 5914 5915 5917 5918 5919 5920 5921 5922 5923 5924 5926 5927 5928 5929 5931 5932 5932 5933 5934
5834 5834 5834 5834 5834 5834 5834 5833 5833 5833 5834 5833 5834 5835 5836 5835 5835 5835 5836 5837 5838 5840 5840 5841 5842 5842 5842 5843 5844 5845 5844 5843 5845 5848 5848 5849 5849 5851 5853 5855 5855 5857 5858 5861 5863 5866 5869 5871 5873 5876 5878 5881 5884 5886 5888 5889 5891 5893 5895 5897 5899 5901 5903 5905 5907 5909 5910 5912 5913 5914 5915 5917 5918 5919 5920 5921 5922 5924 5925 5926 5927 5929 5930 5931 5931 5932
5832 5832 5832 5832 5832 5832 5832 5832 5831 5832 5832 5832 5832 5834 5834 5834 5834 5834 5834 5834 5835 5837 5838 5838 5839 5840 5841 5841 5842 5842 5841 5842 5844 5844 5844 5845 5847 5849 5851 5852 5854 5855 5856 5858 5860 5863 5866 5868 5870 5872 5875 5877 5880 5884 5886 5888 5889 5891 5893 5895 5897 5899 5901 5903 5905 5906 5908 5909 5911 5912 5913 5914 5916 5917 5919 5920 5921 5922 5923 5924 5925 5927 5928 5929 5929 5930
5830 5830 5830 5830 5830 5830 5830 5830 5829 5829 5830 5830 5830 5831 5832 5832 5832 5833 5833 5834 5834 5834 5835 5836 5837 5838 5839 5840 5840 5840 5840 5840 5840 5840 5841 5843 5845 5847 5849 5850 5851 5852 5853 5855 5856 5858 5863 5866 5868 5870 5872 5875 5877 5880 5883 5885 5887 5889 5890 5892 5895 5897 5899 5900 5902 5903 5905 5907 5908 5909 5911 5912 5914 5916 5917 5918 5919 5921 5923 5924 5925 5925 5926 5927 5927 5928
5827 5828 5828 5828 5828 5828 5828 5828 5827 5827 5827 5827 5827 5828 5829 5829 5830 5830 5831 5833 5833 5832 5832 5834 5835 5835 5837 5839 5839 5839 5838 5837 5838 5839 5840 5842 5843 5845 5846 5847 5848 5848 5850 5851 5852 5854 5859 5862 5865 5867 5869 5871 5873 5875 5878 5881 5883 5886 5888 5890 5892 5894 5896 5898 5899 5901 5903 5904 5906 5907 5909 5910 5912 5913 5915 5916 5919 5921 5922 5923 5923 5923 5924 5925 5925 5926
5825 5825 5825 5826 5826 5826 5826 5826 5825 5825 5824 5824 5825 5826 5827 5827 5827 5828 5829 5830 5830 5829 5829 5830 5832 5833 5834 5836 5836 5836 5836 5836 5837 5838 5838 5839 5840 5842 5843 5844 5845 5845 5847 5848 5849 5851 5854 5856 5859 5863 5865 5867 5869 5872 5875 5878 5880 5883 5885 5888 5890 5891 5893 5894 5896 5898 5900 5901 5903 5905 5907 5908 5909 5911 5912 5915 5917 5918 5919 5919 5919 5919 5920 5921 5922 5923
5822 5822 5823 5824 5824 5825 5825 5825 5824 5823 5822 5822 5822 5823 5823 5824 5825 5825 5826 5827 5827 5827 5827 5828 5829 5830 5831 5831 5832 5833 5834 5834 5835 5835 5835 5836 5838 5839 5840 5841 5842 5843 5844 5844 5846 5848 5851 5852 5856 5859 5860 5863 5866 5869 5872 5875 5877 5880 5882 5885 5886 5888 5889 5891 5893 5895 5896 5897 5900 5903 5904 5905 5907 5908 5910 5911 5914 5915 5916 5916 5915 5915 5916 5918 5919 5920
5819 5820 5821 5821 5821 5823 5824 5824 5822 5820 5820 5821 5820 5820 5821 5821 5822 5822 5823 5823 5824 5825 5825 5826 5826 5827 5828 5829 5829 5829 5830 5831 5831 5833 5834 5834 5835 5837 5838 5838 5839 5840 5841 5841 5841 5844 5846 5849 5851 5853 5854 5857 5860 5864 5868 5871 5873 5875 5878 5880 5882 5884 5886 5889 5890 5892 5893 5894 5897 5900 5902 5903 5904 5906 5907 5909 5910 5912 5913 5913 5912 5913 5914 5914 5915 5916
5816 5817 5819 5818 5818 5821 5822 5820 5818 5819 5819 5818 5818 5818 5818 5818 5819 5820 5820 5821 5821 5822 5823 5824 5824 5825 5827 5828 5827 5826 5827 5828 5830 5832 5833 5833 5834 5835 5835 5836 5836 5837 5839 5839 5838 5839 5842 5844 5846 5847 5849 5853 5857 5861 5865 5867 5869 5872 5874 5876 5879 5881 5884 5886 5888 5889 5891 5892 5895 5897 5899 5900 5901 5903 5904 5905 5906 5908 5909 5910 5910 5911 5911 5912 5912 5913
5814 5815 5816 5815 5816 5818 5818 5817 5817 5817 5816 5816 5815 5815 5815 5815 5816 5817 5818 5818 5818 5819 5821 5821 5822 5823 5825 5824 5823 5824 5826 5827 5828 5830 5831 5832 5833 5833 5834 5835 5835 5835 5836 5837 5836 5837 5839 5842 5844 5845 5848 5852 5856 5860 5863 5865 5867 5869 5870 5873 5875 5878 5881 5883 5885 5886 5887 5889 5891 5894 5896 5897 5898 5899 5900 5901 5902 5903 5905 5906 5907 5908 5909 5910 5910 5910
5812 5812 5813 5813 5813 5815 5815 5815 5815 5814 5813 5813 5813 5812 5812 5812 5812 5813 5815 5815 5816 5817 5819 5819 5820 5823 5823 5821 5821 5822 5825 5827 5827 5828 5830 5831 5831 5832 5833 5833 5833 5833 5834 5835 5835 5834 5835 5838 5841 5844 5848 5851 5854 5857 5860 5862 5864 5866 5868 5870 5873 5875 5878 5880 5882 5883 5885 5887 5889 5891 5892 5894 5895 5895 5896 5898 5899 5900 5900 5902 5903 5904 5905 5906 5907 5907
5810 5810 5810 5810 5811 5812 5812 5812 5812 5812 5812 5811 5810 5810 5810 5809 5809 5810 5812 5813 5812 5814 5815 5815 5817 5820 5820 5819 5820 5821 5823 5824 5826 5826 5828 5829 5830 5830 5831 5832 5832 5832 5832 5833 5833 5832 5833 5835 5838 5840 5844 5848 5850 5854 5856 5858 5861 5863 5866 5869 5871 5873 5876 5877 5879 5882 5883 5884 5886 5887 5888 5890 5891 5892 5893 5894 5895 5896 5896 5897 5898 5899 5900 5901 5902 5903
5807 5807 5807 5807 5808 5809 5810 5810 5810 5810 5810 5808 5807 5808 5807 5807 5807 5807 5809 5809 5809 5810 5812 5812 5813 5816 5817 5817 5818 5820 5821 5822 5824 5825 5825 5827 5828 5828 5829 5830 5831 5831 5831 5832 5832 5831 5831 5833 5834 5836 5839 5843 5846 5850 5853 5855 5857 5860 5863 5866 5868 5870 5873 5874 5876 5879 5880 5881 5883 5883 5885 5886 5887 5888 5890 5891 5891 5891 5891 5893 5893 5894 5895 5896 5896 5897
5804 5804 5804 5805 5806 5807 5807 5807 5808 5808 5807 5805 5805 5805 5805 5805 5805 5805 5806 5805 5805 5807 5809 5809 5810 5813 5814 5814 5815 5817 5819 5820 5822 5824 5825 5825 5825 5826 5827 5828 5829 5830 5831 5831 5832 5831 5829 5828 5830 5834 5837 5840 5843 5846 5849 5852 5855 5857 5860 5863 5865 5867 5869 5871 5874 5876 5877 5878 5879 5879 5880 5882 5882 5883 5886 5886 5886 5886 5886 5887 5888 5889 5889 5890 5890 5891
5801 5801 5802 5803 5803 5804 5804 5805 5806 5806 5804 5803 5803 5803 5803 5803 5803 5803 5802 5802 5803 5804 5805 5805 5807 5810 5812 5812 5812 5814 5816 5818 5820 5823 5824 5823 5823 5824 5825 5827 5828 5829 5829 5830 5831 5830 5828 5827 5829 5832 5835 5838 5841 5843 5846 5850 5852 5855 5857 5860 5862 5864 5866 5868 5871 5873 5874 5875 5875 5875 5875 5877 5878 5879 5881 5881 5881 5881 5881 5882 5883 5884 5884 5885 5886 5886
5799 5799 5799 5800 5801 5802 5802 5803 5803 5803 5801 5801 5801 5800 5800 5801 5801 5800 5800 5800 5801 5802 5802 5803 5805 5807 5808 5808 5809 5811 5814 5816 5818 5820 5822 5822 5822 5823 5825 5826 5826 5827 5828 5828 5829 5829 5828 5828 5828 5829 5831 5834 5837 5841 5844 5847 5850 5852 5855 5857 5858 5860 5863 5865 5867 5869 5870 5871 5871 5871 5871 5872 5874 5875 5875 5875 5876 5876 5876 5877 5878 5879 5880 5881 5881 5881
5797 5797 5797 5797 5798 5799 5799 5800 5800 5799 5798 5798 5798 5798 5798 5799 5798 5798 5798 5798 5799 5799 5800 5800 5802 5803 5804 5804 5807 5810 5812 5814 5816 5817 5819 5820 5821 5823 5824 5825 5825 5826 5827 5827 5827 5828 5828 5828 5829 5829 5829 5831 5834 5838 5842 5844 5846 5849 5851 5853 5854 5857 5859 5862 5863 5864 5866 5867 5868 5869 5868 5867 5868 5869 5868 5868 5869 5869 5870 5871 5872 5873 5874 5875 5874 5874
5794 5794 5795 5795 5796 5796 5797 5796 5796 5795 5795 5796 5796 5796 5796 5796 5796 5796 5796 5796 5796 5797 5798 5798 5799 5801 5801 5801 5805 5809 5811 5812 5814 5815 5817 5818 5820 5821 5823 5823 5824 5825 5826 5826 5827 5827 5827 5828 5829 5830 5830 5831 5834 5837 5840 5841 5843 5845 5846 5848 5850 5852 5854 5857 5859 5861 5862 5864 5865 5865 5865 5864 5864 5864 5864 5864 5864 5865 5866 5866 5866 5867 5868 5868 5867 5867
5792 5792 5793 5793 5792 5793 5793 5793 5793 5792 5793 5793 5793 5793 5794 5794 5794 5794 5794 5794 5794 5795 5796 5796 5797 5799 5799 5799 5802 5806 5808 5810 5812 5813 5814 5816 5817 5819 5820 5821 5822 5823 5825 5826 5826 5827 5827 5828 5829 5831 5832 5833 5834 5836 5838 5839 5840 5842 5843 5845 5846 5848 5850 5852 5854 5856 5857 5859 5860 5861 5861 5862 5862 5862 5862 5862 5862 5862 5862 5862 5862 5863 5863 5862 5861 5861
5788 5789 5789 5789 5789 5790 5790 5790 5790 5790 5790 5791 5791 5791 5791 5791 5791 5791 5791 5792 5792 5793 5793 5794 5795 5797 5797 5798 5799 5801 5804 5807 5809 5811 5812 5812 5814 5816 5818 5819 5820 5822 5823 5825 5825 5826 5827 5828 5829 5831 5832 5833 5834 5835 5837 5838 5839 5840 5842 5843 5845 5846 5847 5849 5850 5852 5853 5855 5856 5857 5858 5859 5859 5859 5860 5861 5861 5860 5860 5860 5860 5860 5860 5859 5857 5856
5785 5785 5787 5787 5787 5787 5787 5787 5787 5788 5788 5788 5788 5789 5789 5789 5788 5788 5788 5789 5789 5790 5790 5790 5792 5793 5795 5796 5796 5798 5801 5804 5806 5808 5809 5809 5811 5813 5815 5816 5818 5820 5821 5823 5824 5825 5826 5827 5828 5830 5831 5832 5833 5834 5835 5836 5838 5839 5841 5842 5844 5845 5846 5847 5848 5849 5851 5852 5853 5854 5855 5856 5856 5857 5857 5858 5859 5858 5858 5858 5859 5858 5858 5857 5856 5855
5782 5783 5784 5784 5785 5785 5785 5784 5785 5785 5785 5785 5785 5786 5786 5786 5785 5785 5785 5786 5787 5787 5786 5787 5789 5791 5792 5793 5794 5796 5798 5800 5803 5806 5807 5808 5810 5812 5813 5814 5816 5817 5819 5821 5822 5824 5825 5826 5827 5828 5829 5830 5831 5832 5834 5835 5836 5838 5839 5841 5842 5843 5844 5845 5846 5847 5848 5849 5850 5851 5852 5852 5853 5853 5854 5855 5856 5856 5856 5856 5856 5855 5855 5855 5855 5855
5779 5780 5781 5781 5781 5782 5782 5782 5782 5782 5782 5783 5783 5783 5783 5783 5782 5782 5783 5783 5783 5783 5783 5784 5787 5788 5789 5790 5792 5793 5795 5797 5800 5803 5805 5807 5810 5812 5813 5814 5815 5816 5817 5818 5819 5821 5823 5824 5825 5826 5827 5828 5829 5831 5832 5834 5835 5836 5838 5839 5840 5842 5843 5844 5845 5845 5846 5847 5848 5848 5849 5849 5850 5850 5851 5852 5853 5853 5853 5854 5853 5853 5853 5853 5854 5854
5776 5777 5778 5778 5779 5779 5779 5779 5779 5780 5780 5780 5780 5780 5780 5780 5780 5779 5780 5780 5780 5780 5779 5780 5783 5785 5786 5787 5789 5790 5792 5794 5797 5799 5803 5805 5807 5809 5810 5812 5814 5815 5816 5816 5817 5819 5821 5822 5823 5824 5826 5827 5828 5829 5831 5832 5833 5835 5836 5837 5838 5839 5841 5842 5843 5843 5844 5845 5846 5846 5846 5847 5847 5847 5848 5849 5849 5850 5851 5851 5851 5851 5851 5852 5852 5852
5773 5775 5775 5776 5777 5776 5775 5775 5776 5776 5777 5777 5777 5777 5777 5777 5777 5776 5776 5776 5775 5775 5775 5774 5777 5781 5782 5784 5786 5788 5789 5791 5793 5796 5800 5803 5805 5806 5807 5808 5810 5812 5813 5815 5816 5817 5819 5820 5821 5823 5824 5825 5826 5828 5829 5831 5832 5833 5834 5835 5836 5837 5839 5840 5841 5842 5842 5843 5844 5844 5844 5845 5845 5845 5846 5846 5846 5847 5847 5848 5849 5849 5849 5850 5850 5850
5770 5772 5772 5773 5773 5773 5772 5772 5773 5773 5773 5773 5774 5774 5774 5774 5774 5773 5772 5771 5771 5771 5771 5770 5772 5775 5778 5780 5782 5784 5786 5789 5792 5794 5797 5800 5801 5803 5804 5805 5806 5808 5810 5812 5813 5814 5816 5817 5819 5820 5822 5823 5825 5826 5827 5829 5830 5831 5832 5834 5834 5835 5836 5837 5838 5839 5840 5841 5842 5842 5843 5843 5844 5844 5844 5844 5844 5845 5845 5845 5846 5846 5847 5847 5847 5847